EN

Hourly Weather Abrantes

Today, 27 November, Friday

Time Temperature Precipitation Wind Pressure Humidity
00:00 +10°C° 0 mm 3 mps 749 mmHg 91%
01:00 +9°C° 0 mm 3 mps 749 mmHg 91%
02:00 +9°C° 0 mm 2 mps 749 mmHg 91%
03:00 +9°C° 0 mm 2 mps 749 mmHg 91%
04:00 +9°C° 0 mm 2 mps 749 mmHg 92%
05:00 +8°C° 0 mm 2 mps 749 mmHg 93%
06:00 +9°C° 0 mm 2 mps 749 mmHg 89%
07:00 +10°C° 0 mm 2 mps 749 mmHg 85%
08:00 +12°C° 0 mm 2 mps 749 mmHg 81%
09:00 +13°C° 0 mm 2 mps 749 mmHg 77%
10:00 +14°C° 0 mm 2 mps 748 mmHg 73%
11:00 +16°C° 0 mm 2 mps 748 mmHg 69%
12:00 +16°C° 0 mm 2 mps 748 mmHg 67%
13:00 +17°C° 0 mm 2 mps 747 mmHg 65%
14:00 +17°C° 0 mm 2 mps 747 mmHg 63%
15:00 +16°C° 0 mm 2 mps 747 mmHg 69%
16:00 +15°C° 0 mm 2 mps 747 mmHg 76%
17:00 +13°C° 0 mm 1 mps 748 mmHg 82%
18:00 +13°C° 0 mm 1 mps 748 mmHg 83%
19:00 +12°C° 0 mm 1 mps 748 mmHg 85%
20:00 +12°C° 0 mm 2 mps 748 mmHg 87%
21:00 +12°C° 0 mm 1 mps 748 mmHg 87%
22:00 +11°C° 0 mm 1 mps 748 mmHg 87%
23:00 +11°C° 0 mm 1 mps 748 mmHg 87%

Tomorrow, 28 November, Saturday

Time Temperature Precipitation Wind Pressure Humidity
00:00 +11°C° 0 mm 1 mps 748 mmHg 87%
01:00 +10°C° 0 mm 0 mps 748 mmHg 88%
02:00 +9°C° 0 mm 0 mps 747 mmHg 88%
03:00 +9°C° 0 mm 0 mps 747 mmHg 88%
04:00 +9°C° 0 mm 0 mps 747 mmHg 89%
05:00 +10°C° 0 mm 1 mps 747 mmHg 90%
06:00 +10°C° 0 mm 1 mps 747 mmHg 87%
07:00 +11°C° 0 mm 1 mps 747 mmHg 85%
08:00 +11°C° 0 mm 1 mps 747 mmHg 83%
09:00 +13°C° 0 mm 2 mps 747 mmHg 78%
10:00 +14°C° 0 mm 2 mps 747 mmHg 73%
11:00 +16°C° 0 mm 3 mps 747 mmHg 68%
12:00 +15°C° 0.1 mm 4 mps 746 mmHg 68%
13:00 +17°C° 0.1 mm 4 mps 746 mmHg 68%
14:00 +16°C° 0.1 mm 5 mps 745 mmHg 68%
15:00 +15°C° 1 mm 4 mps 746 mmHg 75%
16:00 +14°C° 1 mm 4 mps 746 mmHg 83%
17:00 +12°C° 1 mm 3 mps 746 mmHg 91%
18:00 +12°C° 0.9 mm 3 mps 747 mmHg 92%
19:00 +13°C° 0.9 mm 2 mps 747 mmHg 93%
20:00 +13°C° 0.9 mm 1 mps 747 mmHg 95%
21:00 +12°C° 0.1 mm 1 mps 748 mmHg 95%
22:00 +12°C° 0.1 mm 2 mps 748 mmHg 95%
23:00 +12°C° 0.1 mm 2 mps 748 mmHg 94%

Day after tomorrow, 29 November, Sunday

Time Temperature Precipitation Wind Pressure Humidity
00:00 +12°C° 0.1 mm 1 mps 748 mmHg 94%
01:00 +12°C° 0.1 mm 1 mps 748 mmHg 93%
02:00 +12°C° 0.1 mm 1 mps 748 mmHg 92%
03:00 +11°C° 0.1 mm 1 mps 749 mmHg 92%
04:00 +11°C° 0.1 mm 1 mps 749 mmHg 92%
05:00 +11°C° 0.1 mm 1 mps 749 mmHg 92%
06:00 +11°C° 0.1 mm 1 mps 749 mmHg 91%
07:00 +12°C° 0.1 mm 1 mps 750 mmHg 91%
08:00 +12°C° 0.1 mm 1 mps 750 mmHg 90%
09:00 +13°C° 0.2 mm 1 mps 751 mmHg 86%
10:00 +14°C° 0.2 mm 2 mps 751 mmHg 82%
11:00 +14°C° 0.2 mm 2 mps 752 mmHg 78%
12:00 +15°C° 0 mm 2 mps 751 mmHg 76%
13:00 +14°C° 0 mm 3 mps 751 mmHg 74%
14:00 +16°C° 0 mm 3 mps 751 mmHg 71%
15:00 +14°C° 0.3 mm 3 mps 751 mmHg 77%
16:00 +13°C° 0.3 mm 3 mps 752 mmHg 83%
17:00 +13°C° 0.3 mm 2 mps 752 mmHg 88%
18:00 +11°C° 0 mm 3 mps 752 mmHg 90%
19:00 +11°C° 0 mm 3 mps 753 mmHg 92%
20:00 +11°C° 0 mm 3 mps 753 mmHg 93%
21:00 +11°C° 0 mm 3 mps 753 mmHg 94%
22:00 +11°C° 0 mm 3 mps 753 mmHg 94%
23:00 +11°C° 0 mm 3 mps 754 mmHg 94%

30 November, Monday

Time Temperature Precipitation Wind Pressure Humidity
00:00 +11°C° 0 mm 3 mps 754 mmHg 93%
01:00 +10°C° 0 mm 3 mps 754 mmHg 91%
02:00 +10°C° 0 mm 4 mps 753 mmHg 89%
03:00 +11°C° 0 mm 4 mps 754 mmHg 89%
04:00 +11°C° 0 mm 4 mps 754 mmHg 89%
05:00 +11°C° 0 mm 4 mps 754 mmHg 89%
06:00 +11°C° 0 mm 4 mps 754 mmHg 87%
07:00 +12°C° 0 mm 4 mps 754 mmHg 84%
08:00 +12°C° 0 mm 4 mps 754 mmHg 82%
09:00 +14°C° 0 mm 4 mps 754 mmHg 77%
10:00 +15°C° 0 mm 4 mps 755 mmHg 71%
11:00 +18°C° 0 mm 4 mps 755 mmHg 66%
12:00 +18°C° 0 mm 4 mps 755 mmHg 65%
13:00 +18°C° 0 mm 4 mps 754 mmHg 64%
14:00 +19°C° 0 mm 4 mps 754 mmHg 63%
15:00 +17°C° 0 mm 3 mps 754 mmHg 69%
16:00 +16°C° 0 mm 3 mps 754 mmHg 75%
17:00 +13°C° 0 mm 3 mps 755 mmHg 82%
18:00 +13°C° 0 mm 3 mps 755 mmHg 82%
19:00 +13°C° 0 mm 3 mps 755 mmHg 81%
20:00 +13°C° 0 mm 3 mps 755 mmHg 81%
21:00 +12°C° 0 mm 3 mps 755 mmHg 82%
22:00 +12°C° 0 mm 3 mps 756 mmHg 82%
23:00 +12°C° 0 mm 3 mps 756 mmHg 82%

1 December, Tuesday

Time Temperature Precipitation Wind Pressure Humidity
00:00 +12°C° 0 mm 3 mps 756 mmHg 82%
01:00 +12°C° 0 mm 3 mps 755 mmHg 82%
02:00 +12°C° 0 mm 3 mps 755 mmHg 82%
03:00 +11°C° 0 mm 3 mps 755 mmHg 83%
04:00 +11°C° 0 mm 3 mps 755 mmHg 84%
05:00 +11°C° 0 mm 3 mps 755 mmHg 85%
06:00 +11°C° 0 mm 3 mps 756 mmHg 83%
07:00 +11°C° 0 mm 3 mps 756 mmHg 82%
08:00 +12°C° 0 mm 4 mps 756 mmHg 80%
09:00 +13°C° 0 mm 4 mps 756 mmHg 75%
10:00 +15°C° 0 mm 4 mps 756 mmHg 71%
11:00 +17°C° 0 mm 4 mps 756 mmHg 66%
12:00 +18°C° 0 mm 3 mps 756 mmHg 65%
13:00 +18°C° 0 mm 3 mps 755 mmHg 64%
14:00 +18°C° 0 mm 3 mps 755 mmHg 63%
15:00 +17°C° 0 mm 3 mps 755 mmHg 70%
16:00 +16°C° 0 mm 3 mps 756 mmHg 76%
17:00 +14°C° 0 mm 2 mps 756 mmHg 83%
18:00 +14°C° 0 mm 2 mps 756 mmHg 83%
19:00 +13°C° 0 mm 2 mps 756 mmHg 83%
20:00 +13°C° 0 mm 2 mps 756 mmHg 84%
21:00 +13°C° 0 mm 2 mps 756 mmHg 84%
22:00 +12°C° 0 mm 2 mps 756 mmHg 84%
23:00 +11°C° 0 mm 3 mps 756 mmHg 85%

2 December, Wednesday

Time Temperature Precipitation Wind Pressure Humidity
00:00 +12°C° 0 mm 2 mps 756 mmHg 85%
01:00 +10°C° 0 mm 2 mps 756 mmHg 86%
02:00 +10°C° 0 mm 2 mps 755 mmHg 87%
03:00 +10°C° 0 mm 2 mps 755 mmHg 87%
04:00 +10°C° 0 mm 2 mps 755 mmHg 87%
05:00 +10°C° 0 mm 2 mps 755 mmHg 87%
06:00 +10°C° 0 mm 2 mps 755 mmHg 84%
07:00 +12°C° 0 mm 2 mps 755 mmHg 81%
08:00 +12°C° 0 mm 2 mps 755 mmHg 78%
09:00 +13°C° 0 mm 3 mps 755 mmHg 73%
10:00 +16°C° 0 mm 3 mps 754 mmHg 68%
11:00 +17°C° 0 mm 3 mps 754 mmHg 63%
12:00 +17°C° 0 mm 3 mps 753 mmHg 62%
13:00 +18°C° 0 mm 2 mps 753 mmHg 62%
14:00 +18°C° 0 mm 2 mps 752 mmHg 62%
15:00 +16°C° 0 mm 2 mps 752 mmHg 69%
16:00 +15°C° 0 mm 1 mps 752 mmHg 76%
17:00 +13°C° 0 mm 1 mps 752 mmHg 83%
18:00 +13°C° 0 mm 1 mps 752 mmHg 83%
19:00 +12°C° 0 mm 1 mps 752 mmHg 84%
20:00 +12°C° 0 mm 1 mps 752 mmHg 85%
21:00 +12°C° 0 mm 1 mps 752 mmHg 86%
22:00 +11°C° 0 mm 1 mps 752 mmHg 86%
23:00 +10°C° 0 mm 0 mps 752 mmHg 87%
Show more